Flag for Norway Weather past 2 weeks in Kristiansand, Norway

Now
50 °F

Clear.


Feels Like: 47 °F
Forecast: 40 / 56 °F
Wind: 8 mph from Northeast

Location: Kristiansand / Kjevik

Current Time: Sep 22, 2014 at 9:12:29 PM

Latest Report: Sep 22, 2014 at 8:50 PM


Visibility: 10 mi

Pressure: 30.04 "Hg

Humidity: 76%

Dew point: 43 °F

Location of KristiansandLocation

Historic Weather in Kristiansand — Graph

°F

Kristiansand temperature yesterday

Maximum temperature yesterday: 68 °F (at 3:20 PM)
Minimum temperature yesterday: 54 °F (at 5:50 AM)
Average temperature yesterday: 59 °F

Past Weeks' High & Low Weather Summary

 TemperatureHumidityPressure
High72 °F (Sep 9, 3:20 PM)100% (Sep 8, 2:20 AM)30.45 "Hg (Sep 8, 2:20 AM)
Low39 °F (Sep 22, 6:50 AM)27% (Sep 22, 4:50 PM)29.77 "Hg (Sep 9, 6:50 AM)
Average56 °F79%30.13 "Hg
* Reported Sep 7 7:20 PM — Sep 22 7:20 PM, Kristiansand, Weather by CustomWeather, © 2014

Note: Actual official high and low records may vary slightly from our data, if they occured in-between our weather recording intervals... More about our weather records

Advertising

Kristiansand weather history for previous 24 hours

 ConditionsComfort  
Time TempWeatherWind HumidityBarometerVisibility
7:20 PM
Sep 22
54 °FPassing clouds.5 mph67%30.01 "HgN/A
6:50 PM55 °FPassing clouds.5 mph63%30.01 "HgN/A
6:20 PM57 °FSunny.9 mph55%30.01 "Hg10 mi
5:50 PM61 °FSunny.14 mph48%30.01 "Hg10 mi
5:20 PM63 °FPassing clouds.5 mph30%30.01 "HgN/A
4:50 PM63 °FPassing clouds.6 mph27%30.01 "HgN/A
4:20 PM63 °FPassing clouds.6 mph30%30.01 "HgN/A
3:50 PM63 °FPassing clouds.5 mph32%30.01 "HgN/A
3:20 PM63 °FPassing clouds.7 mph30%30.01 "HgN/A
2:50 PM63 °FPassing clouds.6 mph34%30.01 "HgN/A
2:20 PM61 °FPassing clouds.8 mph34%30.04 "HgN/A
1:50 PM61 °FPassing clouds.7 mph29%30.04 "HgN/A
1:20 PM61 °FPassing clouds.8 mph34%30.01 "HgN/A
12:50 PM59 °FSunny.7 mph34%30.04 "Hg10 mi
12:20 PM59 °FPassing clouds.9 mph36%30.01 "HgN/A
11:50 AM57 °FPassing clouds.9 mph39%30.01 "HgN/A
11:20 AM57 °FSunny.12 mph39%30.01 "Hg10 mi
10:50 AM55 °FPassing clouds.12 mph41%30.04 "HgN/A
10:20 AM54 °FSunny.5 mph47%30.04 "Hg10 mi
9:50 AM52 °FSunny.8 mph44%30.01 "Hg10 mi
9:20 AM52 °FPassing clouds.8 mph44%30.01 "HgN/A
8:50 AM50 °FSunny.9 mph47%30.01 "Hg10 mi
8:20 AM48 °FSunny.9 mph50%30.01 "Hg10 mi
7:50 AM39 °FPassing clouds.3 mph87%29.98 "HgN/A
7:20 AM39 °FPassing clouds.7 mph87%29.95 "HgN/A
6:50 AM39 °FPassing clouds.5 mph87%29.95 "HgN/A
6:20 AM41 °FClear.6 mph81%29.95 "Hg10 mi
5:50 AM48 °FCool.7 mph54%29.92 "HgN/A
5:20 AM46 °FCool.7 mph66%29.92 "HgN/A
4:50 AM50 °FCool.8 mph50%29.92 "HgN/A
4:20 AM50 °FCool.9 mph50%29.92 "HgN/A
3:50 AM50 °FCool.9 mph50%29.92 "HgN/A
3:20 AM50 °FCool.8 mph50%29.92 "HgN/A
2:50 AM52 °FCool.9 mph47%29.92 "HgN/A
2:20 AM52 °FPassing clouds.8 mph47%29.89 "HgN/A
1:50 AM52 °FCool.7 mph50%29.89 "HgN/A
1:20 AM50 °FCool.3 mph54%29.89 "HgN/A
12:50 AM54 °FPassing clouds.9 mph47%29.89 "HgN/A
12:20 AM54 °FOvercast.8 mph51%29.89 "HgN/A
11:50 PM
Sep 21
55 °FClear.8 mph47%29.89 "Hg10 mi
11:20 PM55 °FClear.8 mph51%29.86 "Hg10 mi
10:50 PM55 °FClear.8 mph51%29.86 "Hg10 mi
10:20 PM55 °FClear.10 mph51%29.86 "Hg10 mi
9:50 PM57 °FClear.13 mph48%29.86 "Hg10 mi
9:20 PM57 °FClear.14 mph51%29.83 "Hg10 mi
Weather by CustomWeather, © 2014

See weather overviewHow to use our weather pages